Location: Molino di Ancona
(43.6167°N, 13.3667°E)
Time: 10:41:19
(UTC+00:00)

Cosmos 1378 Rocket - Pass Details

Date: 15 December 2019
Orbit: 602 x 627 km, 82.5° (Epoch: 24 January)

Event Time Altitude Azimuth Distance (km) Brightness Sun altitude
Exits shadow 04:55:01 - 354° (N) 2,846 6.7 -16.9°
Reaches altitude 10° 04:57:06 10° 358° (N) 2,004 6.0 -16.5°
Maximum altitude 05:01:31 63° 80° (E) 699 4.0 -15.8°
Drops below altitude 10° 05:05:55 10° 162° (SSE) 1,996 6.7 -15.0°
Sets 05:08:09 0° 165° (SSE) 2,898 7.5 -14.6°
